Location: ??????
(55.6130°N, 37.7882°E)
Time: 03:16:04
(UTC+00:00)

FENGYUN 3A - Pass Details

Date: 14 April 2024
Orbit: 822 x 835 km, 98.6° (Epoch: 20 May)

Event Time Altitude Azimuth Distance (km) Brightness Sun altitude
Rises 00:43:28 0° 14° (NNE) 3,399 7.8 -13.4°
Reaches altitude 10° 00:45:52 10° 12° (NNE) 2,460 6.9 -13.2°
Maximum altitude 00:51:14 62° 293° (WNW) 940 3.8 -12.6°
Enters shadow 00:55:39 15° 216° (SW) 2,093 5.2 -12.1°
